Location: Eurasberg
(48.3353°N, 11.0839°E)
Time: 05:01:09
(UTC+00:00)

Cosmos 921 Rocket - Visible Passes

Search period start: 21 April 2026 00:00
Search period end: 01 May 2026 00:00
Orbit: 563 x 620 km, 75.8° (Epoch: 20 April)

Date Brightness Start Highest point End Pass type
(mag) Time Alt. Az. Time Alt. Az. Time Alt. Az.
21 Apr 3.9 20:16:17 10° N 20:20:23 36° ENE 20:21:22 32° E visible
21 Apr 4.7 21:54:38 10° NW 21:57:57 26° W 21:57:57 26° W visible
22 Apr 3.3 20:24:47 10° NNW 20:29:07 54° ENE 20:30:06 43° ESE visible
22 Apr 5.2 22:03:51 10° NW 22:06:41 17° W 22:06:41 17° W visible
23 Apr 5.2 18:57:02 10° NNE 18:58:57 13° NE 19:00:51 10° ENE visible
23 Apr 2.9 20:33:22 10° NNW 20:37:48 84° ENE 20:38:51 51° SSE visible
23 Apr 5.6 22:13:53 10° WNW 22:15:07 11° W 22:15:26 11° W visible
24 Apr 4.9 19:04:53 10° N 19:07:53 18° NE 19:10:49 10° E visible
24 Apr 3.3 20:42:04 10° NNW 20:46:24 63° WSW 20:47:38 43° SSW visible
25 Apr 4.4 19:13:06 10° N 19:16:44 25° ENE 19:19:51 12° ESE visible
25 Apr 4.0 20:50:52 10° NNW 20:54:57 40° WSW 20:56:27 29° SW visible
26 Apr 3.8 19:21:29 10° N 19:25:33 36° ENE 19:28:42 15° SE visible
26 Apr 4.7 20:59:50 10° NW 21:03:27 26° W 21:05:17 19° SW visible
27 Apr 3.3 19:29:57 10° NNW 19:34:16 54° ENE 19:37:34 16° SE visible
27 Apr 5.3 21:09:03 10° NW 21:11:53 17° W 21:14:10 12° SW visible
28 Apr 2.9 19:38:33 10° NNW 19:42:56 84° ENE 19:46:29 15° SSE visible
28 Apr 5.7 21:19:08 10° WNW 21:20:15 11° W 21:21:21 10° WSW visible
29 Apr 3.4 19:47:15 10° NNW 19:51:33 62° WSW 19:55:26 12° S visible
30 Apr 4.2 19:56:02 10° NNW 20:00:06 39° WSW 20:04:03 10° S visible
